750  
SXUS52 KJAX 202113  
OSOJAX  
OTHER SURFACE OBSERVATIONS  
NATIONAL WEATHER SERVICE JACKSONVILLE FL  
400 PM EST SUN JAN 20 2019  
 
FLZ020>025-030>033-035>038-040-202200-   
..FLORIDA
 
 
 
CITY SKY/WX TMP DP RH WIND PRES REMARKS  
CECIL FIELD SUNNY 52 34 50 W17 29.93S  
HERLONG FIELD NOT AVBL  
FERNANDINA BCH NOT AVBL  
LAKE CITY FAIR 46 32 57 W18G24 29.98R  
JUNIPER SPGS NOT AVBL  
BUNNELL NOT AVBL  
KEYSTONE HGTS CLEAR 48 32 53 NW17G26 29.95S  

 
 
GAZ132>136-149>154-162>166-202200-   
..GEORGIA
 
 
 
CITY SKY/WX TMP DP RH WIND PRES REMARKS  
JESUP FAIR 52 32 46 NW18G28 29.92R  
HOMERVILLE NOT AVBL  
SWAINSBORO FAIR 48 32 53 NW13 29.92R  
CORDELE NOT AVBL  
EASTMAN FAIR 46 28 49 NW15G21 29.99R  

 
 
PLEASE NOTE: THESE OBSERVATIONS ARE NOT QUALITY CONTROLLED AND MAY  
NOT BE AVAILABLE AT ALL TIMES.  

 
 
 
CLICK HERE TO GO TO PREVIOUS BULLETINS.

The Nexlab FL Page
The Nexlab GA Page Main Text Page